{"data":{"norad_id":63565,"intl_designator":"2025-075T","name":"STARLINK-32687","alt_names":[],"object_type":"PAYLOAD","status":"ACTIVE","operator":null,"country":"US","launch_date":"2025-04-13","launch_site_code":"AFETR","launch_vehicle":null,"mission":null,"orbit_class":"UNKNOWN","rcs_meters":null,"size_class":null,"mass_kg":null,"dimensions":null,"purposes":["comms"],"wikipedia_slug":null,"has_3d_model":false,"image_url":null,"decayed_at":null,"tle_current":{"epoch":"2026-09-20T07:53:21.522912Z","epoch_age_seconds":171166,"freshness":"FRESH","line1":"1 63565U 25075T   26263.32872133  .00009678  00000+0  36069-3 0  9998","line2":"2 63565  42.9960 251.4945 0001094 276.3065  83.7662 15.27585088 81707","mean_motion":15.27585088,"eccentricity":0.0001094,"inclination_deg":42.996,"raan_deg":251.4945,"arg_perigee_deg":276.3065,"mean_anomaly_deg":83.7662,"bstar":0.00036069,"rev_number":8170,"period_min":94.266434734927,"perigee_km":482.28324868737,"apogee_km":483.78447287171,"semimajor_km":6861.1708607795,"source":"CELESTRAK","updated_at":"2026-09-21T09:00:35.022929Z"}}}